www.pogodaiklimat.ru

Погода и климат >> Архив погоды >> Россия >> Сахалинская область >> Погиби


ПОГОДА в Погибях

  • Прогноз погоды в Погибях
  • Монитор погоды в Погибях
  • Климат города

АРХИВ ПОГОДЫ в Погибях

Время (UTC), дата Ветер
(напр.,м/с)
 
Видим.   Явления Облачность Т
(С)
Тd
(С)
f
(%)
Тe
(С)
Тes
(С)
Комфортность P
(гПа)
Po
(гПа)
Тmin
(С)
Tmax
(С)
R
(мм)
R24
(мм)
S
(см)
00 14.05 СЗ 6-8
{10}
20 км {туман} 10/10 300 м
[St]
+0.9 -0.5 90 -6 -6 1004.4 1003.5
03 14.05 СЗ 4-6
{8}
50 км 9/8 300 м
[St Ac trans]
+1.6 -0.6 85 -3 -2 1003.4 1002.5
06 14.05 СЗ 4-6
{8}
50 км 9/6 600 м
[Cb cap Ac trans Ci sp]
+1.9 -0.3 85 -3 -2 1003.1 1002.2
09 14.05 СЗ 2-4
{6}
50 км 8/3 600 м
[Cb cap Ac trans Ci sp]
+1.8 -0.7 83 -1 -1 1002.4 1001.5 +2.3
12 14.05 СЗ 2-4
{4}
50 км 6/0
[Ac trans Ci sp]
+1.6 -0.3 87 -2 -2 1003.1 1002.2
15 14.05 СЗ 2-2
{4}
50 км 3/0
[Ci sp]
+1.3 +0.2 92 -2 -2 1001.8 1000.9
18 14.05 С 2-2
{2}
50 км 8/0
[Ac trans Ci sp]
+1.1 +0.6 96 -3 -3 1001.1 1000.2
21 14.05 ЮВ 2-2
{4}
50 км 9/8 600 м
[Cb cap Ac trans]
+4.1 +1.8 85 +1 +2 1000.4 999.5 +0.8 28
00 15.05 Ю 2-2
{4}
10 км 10/10 300 м
[St]
+2.8 +2.0 94 -1 -1 999.2 998.3
03 15.05 Ю 2-2
{2}
500 м слабая морось {туман} ?/? +3.6 +2.9 95 +1 +1 999.0 998.1
06 15.05 Ю 2-2
{4}
500 м туман {морось} ?/? +4.0 +3.3 95 +1 +1 1000.6 999.7
09 15.05 Ю 2-2
{4}
500 м туман ?/? +3.5 +2.8 95 0 0 1002.4 1001.5 +4.8 0.4
12 15.05 Ю 2-2
{4}
4000 м дымка {туман} 10/10 300 м
[St]
+2.0 +1.2 94 -1 -1 1003.9 1003.0
15 15.05 Ю 2-2
{4}
4000 м дымка 10/10 300 м
[St]
+1.8 +1.0 94 -2 -2 1004.0 1003.1
18 15.05 Ю 2-2
{4}
4000 м смерч (торнадо) 10/10 300 м
[St]
+1.5 +0.7 94 -2 -2 1005.1 1004.2
21 15.05 Ю 2-2
{4}
4000 м ливневой снег 10/10 300 м
[]
+2.3 +1.5 94 -1 -1 1005.1 1004.2 +1.5 19
00 16.05 С 2-2
{4}
500 м туман ?/? +2.3 +1.5 94 -1 -1 1003.4 1002.5
03 16.05 С 2-2
{4}
500 м туман ?/? +2.9 +2.1 94 -0 -0 1003.1 1002.2
06 16.05 С 2-2
{4}
500 м слабый дождь {туман} ?/? +3.0 +2.2 94 -0 -0 1000.4 999.5
09 16.05 С 2-2
{4}
10 км слабый дождь {туман} 10/10 300 м
[Frnb Ns]
+4.5 +3.5 93 +2 +2 1000.8 999.9 +4.8 1
12 16.05 С 2-2
{4}
10 км слабый дождь {туман} 10/10 300 м
[Frnb Ns]
+4.1 +3.4 95 +1 +1 1000.7 999.8
15 16.05 С 2-2
{4}
10 км слабый дождь 10/10 300 м
[Frnb Ns]
+2.1 +1.3 94 -1 -1 1000.3 999.4
18 16.05 С 2-2
{4}
10 км слабый дождь 10/10 300 м
[Frnb Ns]
+1.5 +0.7 94 -2 -2 1000.0 999.1
21 16.05 С 6-6
{8}
50 км {дождь} 10/10 600 м
[Cb cap]
+0.8 0.0 94 -6 -6 1001.1 1000.2 +0.7 3 13
00 17.05 С 6-6
{8}
50 км {дождь} 9/8 600 м
[Cb cap Ac trans Ci sp]
+1.7 -0.5 85 -4 -4 1003.9 1003.0
03 17.05 С 4-6
{8}
50 км 3/3 600 м
[Cb cap Ci sp]
+3.8 -0.2 75 -1 +7 1004.3 1003.4
06 17.05 С 6-6
{8}
50 км 3/3 1000 м
[Cu med, cong Ci sp]
+10.4 -0.3 47 +8 +10 1004.6 1003.8
09 17.05 С 2-4
{8}
50 км 3/0
[Ci sp]
+4.6 -1.4 65 +2 +3 1005.4 1004.5 +10.6
12 17.05 СВ 2-2
{4}
50 км 3/0
[Ac trans]
+2.1 -1.3 78 -1 -1 1006.7 1005.8
15 17.05 СВ 2-2
{2}
50 км ясно +1.9 -0.9 82 -1 -1 1006.6 1005.7
18 17.05 Ю 2-2
{4}
50 км 6/0
[Ac trans Ci sp]
+1.5 -0.7 85 -2 -2 1006.4 1005.5
21 17.05 Ю 2-2
{4}
50 км 8/3 600 м
[Cb cap Ac trans Ci sp]
+3.7 +1.4 85 +1 +2 1006.7 1005.8 +0.9 9
00 18.05 Ю 6-8
{10}
50 км 3/0
[Ci sp]
+5.3 +1.0 74 +1 +5 1006.8 1005.9
03 18.05 Ю 4-6
{8}
50 км ясно +5.8 +0.7 70 +2 +13 опасность
простуды
1006.8 1005.9
06 18.05 Ю 4-4
{6}
50 км ясно +5.6 +2.4 80 +2 +8 1006.1 1005.3
09 18.05 Ю 6-8
{8}
50 км 6/0
[Ac trans Ci sp]
+4.8 +1.5 79 -0 0 1006.5 1005.7 +5.9
12 18.05 Ю 6-8
{8}
50 км 8/0
[Ac trans Ci sp]
+4.1 +1.3 82 -1 -1 1007.0 1006.1
15 18.05 Ю 6-8
{8}
50 км 4/0
[Ci sp]
+3.7 +0.8 81 -2 -2 1006.4 1005.5
18 18.05 Ю 6-8
{10}
50 км 6/0
[Ac trans Ci sp]
+3.5 +0.9 83 -2 -2 1006.0 1005.1
21 18.05 Ю 4-6
{8}
50 км 9/9 600 м
[Cb cap]
+3.9 +1.3 83 -1 -0 1006.8 1005.9 +0.3 7
00 19.05 З 2-4
{6}
50 км 9/9 600 м
[Cb cap]
+4.6 +2.4 86 +2 +3 1009.6 1008.7
03 19.05 -2
{4}
50 км в посл. час ливневой дождь н/о +3.4 +2.7 95 0 +1 1012.2 1011.3
06 19.05 С 2-2
{4}
50 км {ливн. осадки} 10/10 600 м
[Cb cap]
+4.0 +3.3 95 +1 +1 1013.8 1012.9
09 19.05 В 2-2
{2}
50 км 9/9 600 м
[Cb cap]
+6.8 +0.8 66 +5 +5 1015.5 1014.7 +7.2 2
12 19.05 В 2-2
{2}
50 км 8/4 600 м
[Cb cap Ac trans]
+1.6 0.0 89 -2 -2 1017.5 1016.6
15 19.05 В 2-2
{2}
50 км 6/3 600 м
[Cb cap Ac trans]
+1.2 -0.8 87 -2 -2 1018.1 1017.2
18 19.05 В 2
{2}
50 км 6/3 60 м
[Cb cap Ac trans Ci sp]
+0.8 -1.5 85 -3 -3 1018.8 1017.9
21 19.05 С 2-2
{2}
50 км 4/0
[Ac trans Ci sp]
+2.0 -0.2 85 -1 +1 1018.8 1017.9 +0.8 4
00 20.05 Ю 2-2
{4}
50 км 4/0
[Ac trans Ci sp]
+4.3 -2.5 61 +2 +12 опасность
простуды
1018.5 1017.6
03 20.05 Ю 4-4
{6}
50 км 5/0
[Ac trans Ci sp]
+7.4 -0.6 57 +4 +13 опасность
простуды
1016.0 1015.1
06 20.05 Ю 4-4
{6}
50 км 8/0
[Ac trans Ci sp]
+8.0 -0.8 54 +5 +9 1013.9 1013.0
09 20.05 Ю 4-4
{6}
50 км 9/3 600 м
[Cb cap Ac trans]
+9.0 -2.1 46 +7 +7 1013.4 1012.5 +9.2
12 20.05 Ю 2-2
{6}
50 км 9/5 600 м
[Cb cap Ac trans]
+4.1 +1.3 82 +1 +1 1013.4 1012.5
15 20.05 Ю 2-2
{4}
50 км 10/10 600 м
[Cb cap]
+3.9 +1.1 82 +1 +1 1013.2 1012.3
18 20.05 Ю 2-2
{4}
50 км 10/10 600 м
[Cb cap]
+3.2 +0.6 83 0 0 1012.3 1011.4

 

Местоположение метеостанции Погиби (Сахалинская область, Россия): широта 52.22 долгота 141.60 высота над уровнем моря 6 м.

В архиве по умолчанию представлена погода в Погибях за последнюю неделю. Архивные данные за месяц целиком и за предыдущие месяцы, начиная с января 2011 года, Вы можете получить, выбрав интересующий диапазон дат из раскрывающегося списка и нажав кнопку "Ввод!".


*Определитесь, кто Вы:
робот инопланетянин человек

Внимание! Время в таблицах - всемирное. Для получения местного времени необходимо прибавить поправку, которая в Погибях равна 11 ч.

Смотрите также архив погоды в соседних городах и на ближайших метеорологических станциях:

Погода в Джаоре (Хабаровский край, Россия) (57 км)
Погода в Богородском (Хабаровский край, Россия) (84 км)
Погода в Вал (Сахалинская область, Россия) (96 км)
Погода в Ныше (Сахалинская область, Россия) (108 км)
Погода в Ногликах (Сахалинская область, Россия) (108 км)
Погода в Мариинском (Хабаровский край, Россия) (116 км)
Погода в Николаевск-на-Амуре (Хабаровский край, Россия) (120 км)
Погода в Байдукове (Хабаровский край, Россия) (121 км)
Погода в Александровск-Сахалинском (Сахалинская область, Россия) (151 км)
Погода в Москальво (Сахалинская область, Россия) (162 км)

Пояснения к столбцам:

Ветер - указаны скорость ветра в м/с - средняя за 10 мин, порывы в срок и между сроками (в фигурных скобках) и направление, откуда дует ветер: С - северный, СВ - северо-восточный, В - восточный, ЮВ - юго-восточный, Ю - южный, ЮЗ - юго-западный, З - западный, СЗ - северо-западный.
Видимость - горизонтальная дальность видимости в метрах или километрах. При видимости от 1 до 10 км при отсутствии осадков обычно наблюдается дымка, при ухудшении видимости до 1 км и менее - туман. В сухую погоду видимость может ухудшаться дымом, пылью или мглою.
Явления - указаны атмосферные явления, наблюдавшиеся в срок или в последний час перед сроком; фигурными скобками обозначены явления, наблюдавшиеся между сроками (за 1-3 часа до срока); квадратными скобками обозначены град или гололедные отложения с указанием их диаметра в мм.
Облачность - указаны через наклонную черту общая и нижняя облачность в баллах и высота нижней границы облаков в метрах; квадратными скобками обозначены формы облаков: Ci - перистые, Cs - перисто-слоистые, Cc - перисто-кучевые, Ac - высококучевые, As - высокослоистые, Sc - слоисто-кучевые, Ns - слоисто-дождевые, Cu - кучевые, Cb - кучево-дождевые. Подробнее классификацию облаков см. в Атласе облаков (PDF).
T - Температура воздуха - температура, измеренная на высоте 2 м над землей.
Td - Температура точки росы - температура, при понижении до которой содержащийся в воздухе водяной пар достигнет насыщения.
f - Относительная влажность воздуха - влажноcть воздуха, измеренная на высоте 2 м над землей.
Te - Эффективная температура - температура, которую ощущает одетый по сезону человек в тени. Характеристика душности погоды. При расчете учитывается влияние влажности воздуха и скорости ветра на теплоощущения человека.
Tes - Эффективная температура на солнце - температура, которую ощущает человек, с поправкой на солнечный нагрев. Характеристика знойности погоды. Зависит от высоты солнца над горизонтом, облачности и скорости ветра. Ночью, в пасмурную погоду, а также при ветре 12 м/с и более поправка равна нулю.
P - Атмосферное давление - приведенное к уровню моря атмосферное давление.
Po - Атмосферное давление - измеренное на уровне метеостанции атмосферное давление.
Tmin - Минимальная температура - минимум температуры воздуха на высоте 2 м над землей.
Tmax - Максимальная температура - максимум температуры воздуха на высоте 2 м над землей.
R - Количество осадков - Количество выпавших осадков за период времени, мм. При наведении курсора мыши на число - период времени, за который выпало указанное количество осадков.
R24 - Количество осадков - Количество выпавших осадков за 24 часа, мм.
S - Снежный покров - Высота снежного покрова, см. При наведении курсора мыши на число - состояние снежного покрова и степень покрытия местности в баллах.